Andocutin, Mexico

5:52 PM CDT on August 20, 2017 (GMT -0500)
Gen Francisco J Mujica International | | Change Station

Elev 6033 ft 19.85 °N, 101.03 °W | Updated 1 hour ago

Partly Cloudy
Partly Cloudy
79 °F
Feels Like 79 °F
N
5
Wind Variable Wind from NW

Today
High -- | Low -- °F
--% Chance of Precip.
Yesterday
High -- | Low -- °F
Precip. -- in
Pressure 30.13 in
Visibility 8.0 miles
Clouds Scattered Clouds 3000 ft
Dew Point 59 °F
Humidity 51%
Rainfall 0.00 in
Snow Depth Not available.
7:25 AM 8:08 PM
Waning Crescent, 1% visible
METAR MMMM 202148Z 32004KT 8SM SCT030 26/15 A3013 RMK 8/100 CB SSE DNST CB SW TCU ESE
Pressure 30.13 in
Visibility 8.0 miles
Clouds Scattered Clouds 3000 ft
Dew Point 59 °F
Humidity 51%
Rainfall 0.00 in
Snow Depth Not available.
7:25 AM 8:08 PM
Waning Crescent, 1% visible
METAR MMMM 202148Z 32004KT 8SM SCT030 26/15 A3013 RMK 8/100 CB SSE DNST CB SW TCU ESE

Get Severe Weather Alerts

Thanks for signing up!

Be on the lookout for a verification email in your inbox.

You'll start receiving the daily forecast at 6 AM.

×

10-Day Weather Forecast

No radar image for this location.
×

Almanac

Astronomy

Aug. 20, 2017 Rise Set
Actual Time
Civil Twilight
Nautical Twilight
Astronomical Twilight
Moon
Length of Visible Light
Length of Day
Tomorrow will be .
, % of the Moon is Illuminated

Today's Extremes

Country Highs Country Lows

Community

WunderPhotos

Category 6

Welcome to Category 6. This is the collective home for Weather Underground's featured writeups by Dr. Jeff Masters (right), Bob Henson (left), Chris Burt, and other regular contributors.

Nearby

Air Quality

  Air Quality AQ Index Pollutant
Not available.

Snow Depth

Station Depth Elevation

Earthquake Activity

City Distance Mag. Time & Date
Minimum magnitude displayed is 2.5.

Coastal Water Temperatures

Place Temperature

Stations

Nearby Weather Stations

Station Location Temp. Windchill Dew Point Humidity Wind Precip. Elev Updated Type